Wind_Speed
17 20 16 15 9 8 8 6 3 3 3 2 4 4 3 5 6 8 9 8 7 7 7 6 7 10 12 13 14 14 14 15 15 14 14 13 14 15
20 21 19 17 14 11 9 9 5 3 3 1 5 6 5 4 6 8 8 6 5 5 3 5 9 10 12 14 14 15 13 15 16 17 15 13 17 20
22 25 23 19 17 14 12 11 8 4 3 3 7 7 6 6 6 7 7 5 3 4 4 7 9 14 17 18 17 17 16 16 17 16 17 18 20 25
23 28 26 22 19 16 15 12 9 7 4 6 9 9 7 6 4 5 7 4 2 2 2 5 12 16 18 21 23 20 18 18 18 21 26 26 29 34
18 23 26 22 21 18 18 15 11 8 6 7 12 11 9 8 7 5 5 3 1 1 4 9 11 14 18 19 20 20 22 24 26 28 30 32 33 30
19 20 26 25 21 20 22 19 14 10 9 8 13 12 11 10 9 7 5 4 2 1 5 6 9 13 15 19 20 22 23 24 25 28 31 32 33 28
25 20 28 34 22 26 24 22 16 12 12 11 13 14 12 11 11 9 8 6 4 3 4 6 9 11 14 19 23 23 24 26 28 27 32 34 32 29
30 25 29 29 36 29 25 25 20 16 15 14 15 15 14 14 12 10 9 7 4 5 7 8 10 11 14 18 23 24 24 27 29 33 32 30 30 26
33 30 27 25 37 34 28 28 24 19 17 16 17 16 15 16 14 12 12 9 7 7 7 8 9 12 15 18 22 25 27 25 27 33 32 28 28 26
25 27 25 26 35 33 30 31 27 22 19 18 19 19 17 19 16 14 14 13 10 8 9 10 10 12 17 18 22 25 28 25 26 31 30 29 32 32
30 28 26 25 37 37 34 31 29 26 22 22 22 22 20 19 18 17 18 15 13 11 11 12 13 14 17 18 20 25 29 27 28 31 30 29 32 28
25 32 28 32 40 42 37 32 31 29 25 23 23 23 22 20 20 20 19 19 15 13 13 14 14 15 17 20 20 24 26 29 28 28 30 26 27 24
28 29 30 35 39 39 37 34 34 31 27 25 25 24 24 23 23 23 22 20 17 15 16 17 18 18 18 20 22 23 26 28 31 26 28 28 26 28
28 29 32 32 40 35 35 35 34 32 30 26 26 26 26 26 25 23 21 21 19 19 19 19 20 19 19 20 22 25 26 27 31 26 25 28 27 26
33 28 33 30 39 32 33 36 35 33 32 30 29 29 28 27 24 23 24 23 22 21 21 21 21 22 21 22 22 23 25 28 29 26 26 28 28 28
28 36 36 36 39 39 36 36 37 36 34 34 32 32 29 27 27 27 26 24 23 23 22 23 22 23 23 24 23 22 25 26 27 26 27 28 28 30
35 35 38 39 39 44 39 39 39 39 37 37 35 33 31 32 30 29 28 25 25 24 24 24 23 23 24 24 25 25 28 28 27 27 28 28 30 32
37 38 37 39 37 53 58 45 39 40 42 41 39 36 34 35 32 30 29 25 25 26 27 27 24 24 26 24 27 26 30 30 29 29 28 28 31 31
35 42 42 42 42 40 63 58 47 42 48 47 43 39 38 38 34 32 29 26 26 27 29 29 27 26 26 23 28 31 32 32 31 29 30 32 33 29
32 35 38 43 46 48 55 56 61 59 54 52 48 44 41 39 36 34 32 30 29 30 29 29 28 31 27 27 27 32 37 35 35 32 32 35 28 26
35 32 34 38 44 48 50 50 59 62 60 57 54 50 45 42 39 36 36 34 33 32 30 29 31 32 32 32 31 33 38 39 37 36 35 36 27 24
37 32 34 37 41 45 44 48 54 53 57 58 55 55 52 47 42 41 41 39 37 37 34 32 33 35 35 36 34 34 38 43 41 40 39 36 32 23
39 35 33 37 39 44 49 48 50 56 61 60 58 57 57 51 46 46 45 43 42 42 38 38 38 38 36 38 38 36 38 42 43 42 38 36 34 28
Wind_Direction
257 251 250 250 243 226 258 268 298 337 2 69 151 143 126 83 76 99 100 100 94 75 63 41 23 9 355 352 348 345 350 356 356 352 348 349 350 345
249 241 246 248 236 227 244 267 274 318 335 92 152 157 148 143 115 107 109 107 104 91 61 28 14 1 354 354 355 355 356 4 4 357 349 335 338 342
249 240 239 243 236 232 229 252 259 287 306 136 157 167 173 188 147 136 131 128 111 72 17 26 11 11 8 5 2 355 346 341 333 330 327 326 331 337
261 236 235 233 230 235 231 237 243 263 268 159 161 164 178 192 166 152 149 156 117 96 42 28 26 15 7 4 2 12 4 355 338 336 346 343 337 332
273 238 222 224 226 228 230 234 226 253 258 176 166 166 174 172 177 179 172 182 147 91 62 43 25 11 3 359 358 357 355 353 352 349 344 336 331 332
258 239 231 226 224 223 230 230 220 237 246 200 170 178 174 176 185 198 205 216 238 99 44 25 11 3 0 3 356 351 351 347 343 347 348 342 338 332
247 242 242 229 235 220 225 229 220 231 235 209 186 180 185 190 202 213 214 214 245 315 21 10 4 7 3 3 1 360 360 352 348 351 344 345 345 344
244 238 242 242 229 218 218 224 217 226 229 216 199 189 190 197 207 216 219 212 244 303 339 353 2 354 356 354 355 352 353 355 353 349 351 353 357 352
255 232 239 255 223 213 213 220 213 218 217 219 206 198 202 204 205 214 215 220 249 281 317 333 346 342 341 346 344 348 351 355 357 352 356 4 1 354
225 228 233 249 210 208 209 217 212 213 214 213 207 207 210 211 210 218 224 231 256 282 303 317 336 337 332 338 339 339 346 352 352 355 356 357 357 357
229 228 236 229 216 210 211 213 214 215 215 214 215 211 216 217 217 226 234 241 256 271 288 309 325 329 329 333 339 341 347 352 351 351 353 357 355 3
242 226 238 226 208 210 212 209 215 219 220 209 215 215 217 218 221 226 238 245 253 266 282 294 308 322 326 330 336 338 343 351 353 356 358 360 358 360
228 218 224 228 216 213 213 209 212 217 222 218 219 217 221 219 217 225 235 246 258 270 280 291 303 313 321 329 329 329 339 346 349 345 342 352 344 345
220 226 220 220 210 212 214 215 215 216 220 220 221 216 218 221 222 227 237 247 256 262 272 286 298 307 315 321 323 324 332 340 344 344 347 347 346 344
227 228 223 218 218 213 223 218 218 219 222 221 221 221 222 225 228 232 238 245 254 264 274 283 290 298 306 312 321 324 327 335 342 339 339 344 348 345
218 220 226 228 213 216 223 221 220 219 223 226 226 225 226 226 230 234 242 248 254 261 270 278 288 297 304 308 315 323 320 327 335 336 336 338 341 338
228 227 226 225 231 216 219 222 221 222 223 228 229 229 227 228 230 237 243 249 257 266 271 278 288 293 298 304 312 322 321 321 323 332 332 331 333 335
242 239 231 231 236 224 224 231 227 226 226 227 231 230 231 235 234 238 245 250 259 269 275 281 284 286 290 301 308 318 317 319 321 325 326 325 326 330
253 243 239 234 234 229 221 229 229 232 231 229 231 234 234 236 239 241 245 251 259 266 276 283 286 284 286 298 305 312 312 317 319 318 319 321 320 323
262 249 242 232 225 230 228 223 231 235 232 229 230 232 235 237 237 241 245 249 257 267 275 280 283 283 293 296 301 303 307 313 315 316 315 324 314 315
256 248 245 241 233 232 238 235 230 230 230 228 228 230 233 235 235 240 247 252 257 265 273 276 274 281 286 290 295 297 302 308 311 315 311 314 311 307
250 245 239 239 239 242 241 238 233 229 230 229 229 232 233 232 234 239 245 249 257 262 267 269 268 271 278 284 288 295 300 304 308 312 313 310 307 301
250 243 241 239 240 240 241 238 234 235 237 235 230 232 235 234 235 239 244 249 255 261 264 265 266 267 272 279 285 290 295 298 304 309 310 307 306 294
Height
5928 5929 5931 5932 5934 5933 5932 5933 5933 5933 5932 5932 5931 5933 5933 5932 5931 5929 5928 5927 5926 5925 5924 5923 5921 5919 5917 5914 5912 5909 5907 5904 5901 5898 5896 5894 5891 5888
5924 5925 5927 5929 5931 5932 5931 5931 5932 5932 5931 5931 5932 5932 5933 5932 5931 5931 5930 5929 5929 5927 5925 5924 5922 5919 5917 5915 5913 5910 5906 5904 5900 5898 5895 5892 5889 5886
5919 5921 5924 5926 5928 5929 5930 5930 5930 5930 5930 5930 5930 5932 5933 5933 5932 5931 5931 5931 5930 5928 5927 5925 5922 5921 5919 5915 5912 5909 5906 5904 5900 5896 5893 5891 5888 5883
5912 5916 5920 5924 5924 5926 5927 5928 5929 5929 5929 5928 5929 5931 5932 5933 5934 5933 5932 5931 5931 5928 5928 5926 5925 5923 5920 5917 5912 5909 5906 5902 5899 5896 5893 5889 5884 5878
5907 5909 5915 5920 5921 5923 5924 5926 5927 5927 5927 5927 5928 5929 5931 5932 5933 5933 5932 5932 5931 5929 5929 5928 5925 5924 5921 5916 5913 5909 5906 5902 5899 5896 5891 5886 5880 5874
5903 5906 5910 5915 5918 5919 5921 5923 5923 5924 5924 5925 5926 5928 5930 5931 5931 5931 5932 5932 5931 5930 5930 5927 5926 5924 5921 5916 5913 5909 5906 5902 5897 5894 5888 5882 5876 5871
5898 5902 5904 5908 5913 5916 5917 5919 5920 5922 5923 5923 5924 5926 5927 5929 5930 5930 5930 5930 5930 5930 5930 5927 5925 5923 5919 5916 5912 5908 5904 5900 5896 5892 5886 5880 5872 5867
5892 5895 5897 5899 5906 5911 5912 5915 5916 5919 5921 5921 5922 5923 5925 5926 5927 5928 5929 5929 5928 5928 5927 5925 5923 5921 5917 5914 5911 5906 5903 5899 5895 5890 5885 5878 5873 5868
5884 5887 5890 5892 5897 5905 5907 5910 5912 5915 5917 5918 5919 5921 5922 5924 5925 5925 5926 5926 5925 5925 5924 5923 5922 5919 5916 5913 5909 5906 5902 5898 5894 5889 5882 5877 5873 5867
5878 5882 5884 5885 5890 5897 5902 5905 5907 5910 5911 5914 5916 5918 5919 5921 5922 5924 5924 5923 5923 5923 5922 5921 5919 5917 5914 5913 5909 5904 5900 5896 5893 5888 5881 5876 5870 5865
5871 5874 5877 5879 5883 5890 5895 5898 5901 5904 5906 5908 5911 5913 5915 5917 5919 5921 5922 5921 5920 5919 5918 5918 5917 5915 5913 5910 5907 5902 5898 5894 5889 5884 5880 5874 5869 5865
5866 5869 5871 5873 5875 5883 5888 5892 5895 5899 5902 5903 5906 5908 5910 5912 5915 5917 5918 5918 5916 5916 5915 5915 5914 5912 5910 5907 5903 5899 5895 5892 5887 5881 5877 5872 5868 5865
5860 5862 5865 5867 5872 5877 5882 5885 5889 5895 5897 5899 5901 5903 5906 5908 5909 5912 5913 5914 5913 5912 5912 5911 5910 5908 5906 5902 5899 5896 5892 5888 5884 5880 5875 5870 5866 5862
5855 5858 5860 5864 5866 5872 5876 5880 5886 5889 5892 5894 5896 5898 5901 5902 5904 5906 5908 5909 5909 5909 5908 5906 5904 5902 5901 5899 5897 5893 5889 5885 5882 5878 5874 5870 5865 5860
5847 5851 5855 5859 5862 5866 5870 5875 5880 5883 5886 5889 5890 5892 5894 5897 5900 5901 5902 5903 5904 5904 5903 5901 5900 5899 5898 5895 5892 5889 5886 5882 5879 5876 5873 5868 5863 5857
5840 5843 5847 5852 5856 5860 5865 5869 5873 5876 5878 5882 5884 5886 5889 5891 5893 5895 5896 5898 5900 5899 5899 5897 5896 5894 5893 5891 5889 5886 5882 5879 5876 5873 5869 5865 5860 5854
5834 5836 5840 5843 5847 5852 5857 5861 5864 5868 5872 5875 5878 5881 5882 5883 5885 5888 5890 5892 5892 5892 5892 5891 5890 5889 5887 5886 5884 5881 5878 5875 5873 5869 5866 5862 5857 5851
5825 5828 5831 5834 5838 5841 5848 5852 5856 5860 5864 5866 5870 5873 5877 5878 5879 5882 5884 5886 5886 5885 5885 5884 5885 5883 5881 5880 5877 5876 5873 5870 5867 5865 5861 5857 5853 5848
5821 5819 5821 5825 5829 5831 5835 5839 5846 5851 5854 5858 5862 5867 5868 5871 5873 5875 5877 5879 5879 5879 5878 5877 5876 5876 5875 5874 5870 5867 5866 5864 5861 5858 5855 5851 5847 5842
5812 5811 5810 5813 5815 5819 5823 5829 5833 5837 5842 5847 5852 5856 5860 5863 5865 5867 5869 5870 5871 5871 5871 5870 5869 5866 5866 5866 5866 5861 5857 5857 5854 5851 5846 5843 5839 5835
5800 5802 5802 5803 5807 5810 5815 5819 5822 5825 5830 5833 5839 5843 5849 5853 5857 5857 5859 5860 5861 5862 5864 5864 5860 5857 5858 5858 5859 5856 5850 5847 5845 5843 5839 5835 5831 5828
5788 5790 5792 5794 5798 5801 5804 5808 5811 5815 5820 5824 5829 5832 5836 5840 5846 5847 5848 5850 5851 5852 5854 5854 5852 5850 5850 5849 5850 5849 5844 5838 5836 5834 5831 5827 5824 5821
5776 5777 5779 5783 5787 5790 5792 5797 5802 5808 5812 5814 5817 5821 5825 5830 5834 5836 5838 5840 5841 5843 5845 5845 5842 5841 5842 5841 5840 5840 5837 5832 5827 5826 5824 5818 5815 5813